| time (UTC) | temp F | wind direction | speed MPH | gust MPH | rain 1hr in | rain 24hr in | rain mn in | humidity % | barometer mb |
| 20260506040031 | 51 | 28 | 6.0 | 14.0 | 0.16 | 0.93 | 0.00 | 94 | 1007.1 |
| 20260506034530 | 53 | 58 | 3.0 | 9.0 | 0.07 | 0.83 | 0.83 | 94 | 1007.0 |
| 20260506033034 | 58 | 0 | 0.0 | 2.0 | 0.06 | 0.82 | 0.82 | 95 | 1006.5 |
| 20260506031530 | 58 | 200 | 2.0 | 4.0 | 0.04 | 0.79 | 0.79 | 95 | 1006.7 |
| 20260506030030 | 58 | 0 | 0.0 | 4.0 | 0.05 | 0.77 | 0.77 | 95 | 1006.7 |
| 20260506024530 | 58 | 161 | 0.0 | 5.0 | 0.04 | 0.76 | 0.76 | 95 | 1006.9 |
| 20260506023036 | 58 | 0 | 0.0 | 5.0 | 0.07 | 0.76 | 0.76 | 95 | 1007.1 |
| 20260506021530 | 58 | 0 | 0.0 | 0.0 | 0.07 | 0.74 | 0.74 | 95 | 1007.4 |
| 20260506020105 | 58 | 0 | 0.0 | 0.0 | 0.07 | 0.72 | 0.72 | 95 | 1007.6 |
| 20260506014532 | 58 | 0 | 0.0 | 5.0 | 0.13 | 0.72 | 0.72 | 95 | 1007.4 |
| 20260506013031 | 59 | 0 | 0.0 | 3.0 | 0.17 | 0.69 | 0.69 | 94 | 1007.5 |
| 20260506011534 | 58 | 0 | 0.0 | 1.0 | 0.19 | 0.67 | 0.67 | 94 | 1007.3 |
| 20260506010034 | 58 | 0 | 0.0 | 1.0 | 0.18 | 0.65 | 0.65 | 94 | 1007.4 |
| 20260506004534 | 59 | 0 | 0.0 | 1.0 | 0.13 | 0.58 | 0.58 | 94 | 1007.4 |
| 20260506003030 | 59 | 0 | 0.0 | 3.0 | 0.07 | 0.52 | 0.52 | 94 | 1007.6 |
| 20260506001535 | 59 | 0 | 0.0 | 0.0 | 0.05 | 0.48 | 0.48 | 94 | 1007.2 |
| 20260506000050 | 59 | 0 | 0.0 | 3.0 | 0.05 | 0.47 | 0.47 | 94 | 1007.0 |
| 20260505234529 | 59 | 218 | 0.0 | 3.0 | 0.05 | 0.46 | 0.46 | 94 | 1007.0 |
| 20260505233033 | 59 | 209 | 2.0 | 6.0 | 0.05 | 0.45 | 0.45 | 93 | 1007.1 |
| 20260505231534 | 59 | 215 | 2.0 | 12.0 | 0.04 | 0.43 | 0.43 | 93 | 1007.2 |
| 20260505230041 | 60 | 182 | 5.0 | 12.0 | 0.03 | 0.42 | 0.42 | 94 | 1007.7 |
| 20260505224542 | 60 | 221 | 2.0 | 9.0 | 0.02 | 0.41 | 0.41 | 93 | 1007.7 |
| 20260505223036 | 60 | 213 | 2.0 | 6.0 | 0.02 | 0.40 | 0.40 | 94 | 1007.7 |
| 20260505221534 | 61 | 211 | 2.0 | 9.0 | 0.01 | 0.39 | 0.39 | 93 | 1007.7 |
| 20260505220033 | 61 | 227 | 2.0 | 8.0 | 0.03 | 0.39 | 0.39 | 94 | 1007.9 |
| 20260505214530 | 60 | 220 | 3.0 | 10.0 | 0.05 | 0.39 | 0.39 | 93 | 1008.2 |
| 20260505213031 | 60 | 226 | 3.0 | 8.0 | 0.05 | 0.38 | 0.38 | 93 | 1008.1 |
| 20260505211541 | 60 | 219 | 3.0 | 11.0 | 0.07 | 0.38 | 0.38 | 93 | 1008.1 |
| 20260505210030 | 60 | 208 | 5.0 | 12.0 | 0.08 | 0.36 | 0.36 | 93 | 1008.3 |
| 20260505204530 | 60 | 231 | 3.0 | 12.0 | 0.07 | 0.34 | 0.34 | 93 | 1008.5 |
| 20260505203031 | 60 | 199 | 6.0 | 13.0 | 0.08 | 0.33 | 0.33 | 93 | 1008.5 |
| 20260505201533 | 60 | 221 | 4.0 | 9.0 | 0.07 | 0.30 | 0.30 | 93 | 1008.6 |
| 20260505200030 | 60 | 225 | 1.0 | 9.0 | 0.09 | 0.28 | 0.28 | 93 | 1008.7 |
| 20260505194530 | 60 | 213 | 4.0 | 11.0 | 0.16 | 0.27 | 0.27 | 92 | 1008.9 |
| 20260505193031 | 60 | 221 | 2.0 | 11.0 | 0.14 | 0.25 | 0.25 | 92 | 1009.1 |
| 20260505191535 | 60 | 250 | 5.0 | 17.0 | 0.12 | 0.23 | 0.23 | 90 | 1009.0 |
| 20260505190031 | 60 | 208 | 6.0 | 15.0 | 0.07 | 0.18 | 0.18 | 88 | 1009.5 |
| 20260505184538 | 64 | 273 | 5.0 | 11.0 | 0.00 | 0.11 | 0.11 | 79 | 1009.3 |
| 20260505183030 | 65 | 217 | 5.0 | 13.0 | 0.00 | 0.11 | 0.11 | 75 | 1009.0 |
| 20260505181539 | 65 | 230 | 7.0 | 14.0 | 0.00 | 0.11 | 0.11 | 76 | 1009.1 |
| 20260505180029 | 65 | 231 | 4.0 | 12.0 | 0.00 | 0.11 | 0.11 | 76 | 1009.2 |
| 20260505174537 | 65 | 234 | 6.0 | 15.0 | 0.00 | 0.11 | 0.11 | 74 | 1009.3 |
| 20260505173032 | 65 | 229 | 5.0 | 13.0 | 0.00 | 0.11 | 0.11 | 75 | 1009.2 |
| 20260505171537 | 65 | 198 | 6.0 | 15.0 | 0.00 | 0.11 | 0.11 | 75 | 1009.3 |
| 20260505170030 | 64 | 225 | 8.0 | 17.0 | 0.00 | 0.11 | 0.11 | 74 | 1009.4 |
| 20260505164529 | 64 | 217 | 4.0 | 9.0 | 0.00 | 0.11 | 0.11 | 77 | 1009.5 |
| 20260505163030 | 64 | 243 | 4.0 | 12.0 | 0.00 | 0.11 | 0.11 | 76 | 1009.6 |
| 20260505161530 | 64 | 224 | 4.0 | 12.0 | 0.00 | 0.11 | 0.11 | 76 | 1009.5 |
| 20260505153040 | 63 | 246 | 4.0 | 11.0 | 0.00 | 0.11 | 0.11 | 82 | 1009.5 |
| 20260505151531 | 63 | 213 | 5.0 | 15.0 | 0.00 | 0.11 | 0.11 | 80 | 1009.2 |
| 20260505124532 | 57 | 0 | 1.0 | 10.0 | 0.00 | 0.10 | 0.10 | 93 | 1008.5 |
| 20260505123045 | 57 | 0 | 1.0 | 5.0 | 0.00 | 0.10 | 0.10 | 94 | 1008.6 |
| 20260505121529 | 57 | 205 | 1.0 | 3.0 | 0.00 | 0.10 | 0.10 | 94 | 1009.3 |
| 20260505120037 | 56 | 0 | 1.0 | 3.0 | 0.00 | 0.10 | 0.10 | 94 | 1009.5 |
| 20260505114531 | 56 | 205 | 2.0 | 6.0 | 0.00 | 0.10 | 0.10 | 94 | 1009.5 |
| 20260505113030 | 56 | 215 | 1.0 | 5.0 | 0.00 | 0.10 | 0.10 | 93 | 1009.1 |
| 20260505111535 | 56 | 196 | 2.0 | 9.0 | 0.01 | 0.10 | 0.10 | 93 | 1008.8 |
| 20260505101531 | 57 | 0 | 0.0 | 2.0 | 0.07 | 0.09 | 0.09 | 91 | 1009.2 |
| 20260505100034 | 57 | 0 | 0.0 | 4.0 | 0.09 | 0.09 | 0.09 | 90 | 1009.7 |
| 20260505094532 | 58 | 351 | 0.0 | 6.0 | 0.05 | 0.05 | 0.05 | 88 | 1010.0 |
| 20260505093031 | 59 | 0 | 0.0 | 7.0 | 0.02 | 0.02 | 0.02 | 84 | 1010.0 |
| 20260505091533 | 61 | 326 | 2.0 | 9.0 | 0.02 | 0.02 | 0.02 | 77 | 1009.6 |
| 20260505090036 | 65 | 263 | 2.0 | 11.0 | 0.00 | 0.00 | 0.00 | 63 | 1008.6 |
| 20260505084536 | 65 | 225 | 3.0 | 15.0 | 0.00 | 0.00 | 0.00 | 64 | 1008.0 |
| 20260505083032 | 64 | 211 | 3.0 | 8.0 | 0.00 | 0.00 | 0.00 | 67 | 1007.7 |
| 20260505081532 | 63 | 219 | 2.0 | 5.0 | 0.00 | 0.00 | 0.00 | 68 | 1007.5 |
| 20260505080029 | 62 | 225 | 1.0 | 5.0 | 0.00 | 0.00 | 0.00 | 69 | 1007.0 |
| 20260505074534 | 62 | 226 | 2.0 | 8.0 | 0.00 | 0.00 | 0.00 | 68 | 1007.2 |
| 20260505073030 | 63 | 248 | 3.0 | 9.0 | 0.00 | 0.00 | 0.00 | 67 | 1007.2 |
| 20260505071532 | 63 | 225 | 4.0 | 9.0 | 0.00 | 0.00 | 0.00 | 68 | 1006.9 |
| 20260505070030 | 63 | 203 | 4.0 | 10.0 | 0.00 | 0.00 | 0.00 | 67 | 1006.8 |
| 20260505064534 | 63 | 219 | 4.0 | 9.0 | 0.00 | 0.00 | 0.00 | 67 | 1006.9 |
| 20260505063029 | 62 | 209 | 4.0 | 8.0 | 0.00 | 0.00 | 0.00 | 67 | 1006.9 |
| 20260505061528 | 63 | 233 | 5.0 | 11.0 | 0.00 | 0.00 | 0.00 | 66 | 1006.9 |
| 20260505060030 | 63 | 248 | 6.0 | 13.0 | 0.00 | 0.00 | 0.00 | 66 | 1006.9 |
| 20260505054544 | 63 | 210 | 5.0 | 14.0 | 0.00 | 0.00 | 0.00 | 67 | 1006.6 |
| 20260505053029 | 63 | 178 | 5.0 | 10.0 | 0.00 | 0.00 | 0.00 | 66 | 1006.1 |
| 20260505051532 | 64 | 235 | 5.0 | 11.0 | 0.00 | 0.00 | 0.00 | 66 | 1006.2 |
| 20260505041532 | 64 | 211 | 3.0 | 8.0 | 0.00 | 0.00 | 0.00 | 67 | 1006.9 |